Location: Unspecified
(0.0000°N, 0.0000°E)
Time: 23:07:33
(UTC+00:00)

OPS 4682 DEB - Visible Passes

Search period start: 05 June 2026 00:00
Search period end: 15 June 2026 00:00
Orbit: 1237 x 1303 km, 90.2° (Epoch: 28 May)

Date Brightness Start Highest point End Pass type
(mag) Time Alt. Az. Time Alt. Az. Time Alt. Az.
5 Jun ? 18:46:45 10° N 18:54:20 74° E 19:02:04 10° S visible
6 Jun ? 18:49:43 10° N 18:57:21 84° E 19:05:06 10° S visible
7 Jun ? 18:52:43 10° N 19:00:21 86° W 19:08:07 10° S visible
8 Jun ? 18:55:44 10° N 19:03:21 76° W 19:11:06 10° S visible
9 Jun ? 05:13:42 10° E 05:14:50 10° E 05:15:59 10° ENE visible
9 Jun ? 18:58:48 10° N 19:06:21 66° W 19:14:03 10° SSW visible
10 Jun ? 05:14:47 10° ESE 05:17:50 13° E 05:20:51 10° ENE visible
10 Jun ? 19:01:54 10° N 19:09:22 58° W 19:16:57 10° SSW visible
11 Jun ? 05:16:46 10° ESE 05:20:50 15° E 05:24:51 10° NE visible
11 Jun ? 19:05:03 10° NNW 19:12:22 50° W 19:19:48 10° SSW visible
12 Jun ? 05:19:01 10° SE 05:23:49 18° E 05:28:35 10° NE visible
12 Jun ? 19:08:13 10° NNW 19:15:22 44° W 19:22:38 10° SSW visible
13 Jun ? 05:21:25 10° SE 05:26:49 21° E 05:32:08 10° NE visible
13 Jun ? 19:11:26 10° NNW 19:18:22 38° W 19:25:25 10° SSW visible
14 Jun ? 05:23:56 10° SE 05:29:49 25° E 05:35:36 10° NNE visible
14 Jun ? 19:14:42 10° NNW 19:21:22 33° W 19:28:09 10° SSW visible
